TimeMST,TemperatureF,Dew PointF,Humidity,Sea Level PressureIn,VisibilityMPH,Wind Direction,Wind SpeedMPH,Gust SpeedMPH,PrecipitationIn,Events,Conditions,WindDirDegrees,DateUTC
12:53 AM,12.0,5.0,73,30.00,10.0,WSW,8.1,-,N/A,,Clear,250,2012-12-30 07:53:00
1:53 AM,12.0,6.1,77,29.97,10.0,West,10.4,-,N/A,,Clear,270,2012-12-30 08:53:00
2:53 AM,10.9,6.1,81,29.98,10.0,West,13.8,-,N/A,,Clear,280,2012-12-30 09:53:00
3:53 AM,10.9,5.0,77,29.99,10.0,West,20.7,-,N/A,,Clear,270,2012-12-30 10:53:00
4:53 AM,10.0,3.9,76,30.05,10.0,West,16.1,-,N/A,,Clear,260,2012-12-30 11:53:00
5:53 AM,9.0,3.0,77,30.07,10.0,West,17.3,-,N/A,,Clear,260,2012-12-30 12:53:00
6:53 AM,12.0,3.9,70,30.08,10.0,WSW,15.0,-,N/A,,Clear,250,2012-12-30 13:53:00
7:53 AM,12.0,3.0,67,30.09,10.0,South,5.8,-,N/A,,Clear,170,2012-12-30 14:53:00
8:53 AM,12.9,3.9,67,30.08,10.0,WSW,8.1,-,N/A,,Clear,240,2012-12-30 15:53:00
9:53 AM,16.0,6.1,65,30.10,10.0,West,8.1,-,N/A,,Clear,260,2012-12-30 16:53:00
10:53 AM,18.0,7.0,62,30.12,10.0,SW,11.5,-,N/A,,Clear,230,2012-12-30 17:53:00
11:53 AM,24.1,9.0,53,30.08,10.0,WNW,11.5,-,N/A,,Clear,290,2012-12-30 18:53:00
12:53 PM,28.0,12.0,51,30.06,10.0,WNW,6.9,-,N/A,,Clear,290,2012-12-30 19:53:00
1:53 PM,30.9,14.0,50,30.05,10.0,WNW,4.6,-,N/A,,Clear,300,2012-12-30 20:53:00
2:53 PM,30.0,14.0,51,30.09,10.0,Calm,Calm,-,N/A,,Clear,0,2012-12-30 21:53:00
3:53 PM,28.0,14.0,56,30.10,10.0,NNE,4.6,-,N/A,,Clear,30,2012-12-30 22:53:00
4:53 PM,25.0,12.0,58,30.14,10.0,NNE,5.8,-,N/A,,Clear,20,2012-12-30 23:53:00
5:53 PM,23.0,12.0,63,30.17,10.0,NE,3.5,-,N/A,,Clear,40,2012-12-31 00:53:00
6:53 PM,24.1,12.9,62,30.17,10.0,ENE,6.9,-,N/A,,Clear,70,2012-12-31 01:53:00
7:53 PM,19.9,10.9,68,30.18,10.0,NE,8.1,-,N/A,,Clear,50,2012-12-31 02:53:00
8:53 PM,19.9,10.9,68,30.18,10.0,NE,5.8,-,N/A,,Clear,50,2012-12-31 03:53:00
9:53 PM,19.0,10.0,68,30.18,10.0,NNE,4.6,-,N/A,,Clear,20,2012-12-31 04:53:00
10:53 PM,15.1,9.0,77,30.20,10.0,North,6.9,-,N/A,,Clear,10,2012-12-31 05:53:00
11:53 PM,14.0,9.0,80,30.17,10.0,NNE,6.9,-,N/A,,Clear,20,2012-12-31 06:53:00